User: anonymous   Login
Location: Caltech
(34.1382°N, 118.1253°W)
Time: 05:22:12
(UTC-07:00)
Language:

Cosmos 1937 Rocket - Orbit

View from above orbital plane
View from above orbital plane
View from above satellite
View from above satellite

Ground track
Ground track

The orbit data is extracted from the following two-line orbital elements,

1 19039U 88029B   15213.23568127  .00000121  00000-0  48143-4 0  9993
2 19039 074.0487 122.4959 0022730 106.8303 006.4455 14.38237265432230
Epoch (UTC): 01 August 2015 05:39:22
Eccentricity: 0.0022730
inclination: 74.0487°
perigee height: 748 km
apogee height: 780 km
right ascension of ascending node: 122.4959°
argument of perigee: 106.8303°
revolutions per day: 14.38237265
mean anomaly at epoch: 6.4455°
orbit number at epoch: 43223

The dashed part of the orbit path shows where the satellite is in the earth's shadow,  

DLR